Time,TemperatureF,DewpointF,PressureIn,WindDirection,WindDirectionDegrees,WindSpeedMPH,WindSpeedGustMPH,Humidity,HourlyPrecipIn,Conditions,Clouds,dailyrainin,SoftwareType,DateUTC
2013-11-08 00:04:00,55.1,51.6,30.10,ESE,104,0.0,0.0,88,0.00,,,0.00,WeatherTracker,2013-11-08 08:04:00,
2013-11-08 00:15:00,54.9,51.4,30.10,ESE,115,0.0,0.0,88,0.00,,,0.00,WeatherTracker,2013-11-08 08:15:00,
2013-11-08 00:23:00,54.8,51.3,30.10,South,169,4.0,0.0,88,0.00,,,0.00,WeatherTracker,2013-11-08 08:23:00,
2013-11-08 00:33:00,54.6,51.4,30.10,SE,133,0.0,0.0,89,0.00,,,0.00,WeatherTracker,2013-11-08 08:33:00,
2013-11-08 00:49:00,54.4,51.2,30.10,SE,138,0.0,0.0,89,0.00,,,0.00,WeatherTracker,2013-11-08 08:49:00,
2013-11-08 00:58:00,54.2,51.0,30.10,SE,139,0.0,0.0,89,0.00,,,0.00,WeatherTracker,2013-11-08 08:58:00,
2013-11-08 01:04:00,54.0,50.8,30.10,SE,138,0.0,0.0,89,0.00,,,0.00,WeatherTracker,2013-11-08 09:04:00,
2013-11-08 01:11:00,53.6,50.1,30.11,SE,139,0.0,0.0,88,0.00,,,0.00,WeatherTracker,2013-11-08 09:11:00,
2013-11-08 01:16:00,53.4,49.9,30.10,SE,138,0.0,0.0,88,0.00,,,0.00,WeatherTracker,2013-11-08 09:16:00,
2013-11-08 01:27:00,53.1,49.6,30.11,SE,139,0.0,0.0,88,0.00,,,0.00,WeatherTracker,2013-11-08 09:27:00,
2013-11-08 01:49:00,53.2,50.3,30.11,SE,139,0.0,0.0,90,0.00,,,0.00,WeatherTracker,2013-11-08 09:49:00,
2013-11-08 02:18:00,53.1,50.2,30.10,SE,138,0.0,0.0,90,0.00,,,0.00,WeatherTracker,2013-11-08 10:18:00,
2013-11-08 02:28:00,53.0,50.1,30.10,SE,138,0.0,0.0,90,0.00,,,0.00,WeatherTracker,2013-11-08 10:28:00,
2013-11-08 02:53:00,52.8,49.9,30.10,SE,139,0.0,0.0,90,0.00,,,0.00,WeatherTracker,2013-11-08 10:53:00,
2013-11-08 03:03:00,52.9,50.3,30.09,SE,138,0.0,0.0,91,0.00,,,0.00,WeatherTracker,2013-11-08 11:03:00,
2013-11-08 03:28:00,53.1,50.5,30.09,SE,139,0.0,0.0,91,0.00,,,0.00,WeatherTracker,2013-11-08 11:28:00,
2013-11-08 03:35:00,53.1,50.5,30.09,SE,139,0.0,0.0,91,0.00,,,0.00,WeatherTracker,2013-11-08 11:35:00,
2013-11-08 03:48:00,53.0,50.4,30.09,SE,139,0.0,0.0,91,0.00,,,0.00,WeatherTracker,2013-11-08 11:48:00,
2013-11-08 04:10:00,53.0,50.7,30.09,SE,139,0.0,0.0,92,0.00,,,0.00,WeatherTracker,2013-11-08 12:10:00,
2013-11-08 04:22:00,52.8,50.5,30.09,SE,139,0.0,0.0,92,0.00,,,0.00,WeatherTracker,2013-11-08 12:22:00,
2013-11-08 04:27:00,52.7,50.4,30.09,SE,139,0.0,0.0,92,0.00,,,0.00,WeatherTracker,2013-11-08 12:27:00,
2013-11-08 04:48:00,52.6,50.3,30.09,SE,138,0.0,0.0,92,0.00,,,0.00,WeatherTracker,2013-11-08 12:48:00,
2013-11-08 04:55:00,52.4,50.1,30.09,SE,139,0.0,0.0,92,0.00,,,0.00,WeatherTracker,2013-11-08 12:55:00,
2013-11-08 05:17:00,52.2,49.9,30.08,SE,138,0.0,0.0,92,0.00,,,0.00,WeatherTracker,2013-11-08 13:17:00,
2013-11-08 05:30:00,52.0,49.7,30.08,SE,139,0.0,0.0,92,0.00,,,0.00,WeatherTracker,2013-11-08 13:30:00,
2013-11-08 05:39:00,52.0,49.7,30.08,SE,139,0.0,0.0,92,0.00,,,0.00,WeatherTracker,2013-11-08 13:39:00,
2013-11-08 05:52:00,51.9,49.6,30.08,SE,139,0.0,0.0,92,0.00,,,0.00,WeatherTracker,2013-11-08 13:52:00,
2013-11-08 06:02:00,51.8,49.5,30.09,SE,139,0.0,0.0,92,0.00,,,0.00,WeatherTracker,2013-11-08 14:02:00,
2013-11-08 06:10:00,51.8,49.8,30.09,SE,139,0.0,0.0,93,0.00,,,0.00,WeatherTracker,2013-11-08 14:10:00,
2013-11-08 06:16:00,51.7,49.7,30.09,SE,138,0.0,0.0,93,0.00,,,0.00,WeatherTracker,2013-11-08 14:16:00,
2013-11-08 06:22:00,51.7,49.7,30.09,SE,138,0.0,0.0,93,0.00,,,0.00,WeatherTracker,2013-11-08 14:22:00,
2013-11-08 06:36:00,51.8,49.8,30.09,SE,139,0.0,0.0,93,0.00,,,0.00,WeatherTracker,2013-11-08 14:36:00,
2013-11-08 06:42:00,51.7,49.7,30.09,SE,139,0.0,0.0,93,0.00,,,0.00,WeatherTracker,2013-11-08 14:42:00,
2013-11-08 06:49:00,51.5,49.5,30.09,SE,138,0.0,0.0,93,0.00,,,0.00,WeatherTracker,2013-11-08 14:49:00,
2013-11-08 07:04:00,51.4,49.4,30.09,SE,138,0.0,0.0,93,0.00,,,0.00,WeatherTracker,2013-11-08 15:04:00,
2013-11-08 07:24:00,51.5,49.5,30.09,SE,139,0.0,0.0,93,0.00,,,0.00,WeatherTracker,2013-11-08 15:24:00,
2013-11-08 07:32:00,51.3,49.3,30.10,SE,139,1.0,0.0,93,0.00,,,0.00,WeatherTracker,2013-11-08 15:32:00,
2013-11-08 07:38:00,51.1,49.1,30.10,SE,138,0.0,0.0,93,0.00,,,0.00,WeatherTracker,2013-11-08 15:38:00,
2013-11-08 07:46:00,51.2,49.2,30.09,SE,139,0.0,0.0,93,0.00,,,0.00,WeatherTracker,2013-11-08 15:46:00,
2013-11-08 08:04:00,51.5,50.1,30.10,SE,139,0.0,0.0,95,0.00,,,0.00,WeatherTracker,2013-11-08 16:04:00,
2013-11-08 08:21:00,51.3,49.6,30.10,SE,138,0.0,0.0,94,0.00,,,0.00,WeatherTracker,2013-11-08 16:21:00,
2013-11-08 08:27:00,51.3,49.9,30.10,SE,139,1.0,0.0,95,0.00,,,0.00,WeatherTracker,2013-11-08 16:27:00,
2013-11-08 08:32:00,51.4,50.0,30.10,SE,139,0.0,0.0,95,0.00,,,0.00,WeatherTracker,2013-11-08 16:32:00,
2013-11-08 08:43:00,51.2,49.8,30.10,SE,138,0.0,0.0,95,0.00,,,0.00,WeatherTracker,2013-11-08 16:43:00,
2013-11-08 08:49:00,51.4,50.0,30.10,SE,138,0.0,0.0,95,0.00,,,0.00,WeatherTracker,2013-11-08 16:49:00,
2013-11-08 08:55:00,52.2,51.1,30.10,SE,139,0.0,0.0,96,0.00,,,0.00,WeatherTracker,2013-11-08 16:55:00,
2013-11-08 09:06:00,52.1,50.7,30.11,SW,226,0.0,0.0,95,0.00,,,0.00,WeatherTracker,2013-11-08 17:06:00,
2013-11-08 09:21:00,51.8,50.1,30.10,SW,226,2.0,0.0,94,0.00,,,0.00,WeatherTracker,2013-11-08 17:21:00,
2013-11-08 09:26:00,52.3,50.9,30.10,WSW,242,0.0,0.0,95,0.00,,,0.00,WeatherTracker,2013-11-08 17:26:00,
2013-11-08 09:45:00,53.2,50.9,30.10,WSW,244,1.0,0.0,92,0.00,,,0.00,WeatherTracker,2013-11-08 17:45:00,
2013-11-08 09:52:00,54.0,52.0,30.10,WSW,241,1.0,0.0,93,0.00,,,0.00,WeatherTracker,2013-11-08 17:52:00,
2013-11-08 10:01:00,54.8,52.5,30.10,WSW,244,2.0,0.0,92,0.00,,,0.00,WeatherTracker,2013-11-08 18:01:00,
2013-11-08 10:07:00,55.1,52.5,30.10,WSW,250,0.0,0.0,91,0.00,,,0.00,WeatherTracker,2013-11-08 18:07:00,
2013-11-08 10:19:00,55.9,52.7,30.09,WSW,254,0.0,0.0,89,0.00,,,0.00,WeatherTracker,2013-11-08 18:19:00,
2013-11-08 10:24:00,56.4,52.9,30.10,WSW,254,3.0,0.0,88,0.00,,,0.00,WeatherTracker,2013-11-08 18:24:00,
2013-11-08 10:31:00,56.9,53.4,30.09,West,260,1.0,0.0,88,0.00,,,0.00,WeatherTracker,2013-11-08 18:31:00,
2013-11-08 10:41:00,57.9,53.7,30.09,West,264,1.0,0.0,86,0.00,,,0.00,WeatherTracker,2013-11-08 18:41:00,
2013-11-08 10:46:00,58.4,53.6,30.09,West,265,2.0,0.0,84,0.00,,,0.00,WeatherTracker,2013-11-08 18:46:00,
2013-11-08 10:52:00,58.4,53.3,30.09,West,264,1.0,0.0,83,0.00,,,0.00,WeatherTracker,2013-11-08 18:52:00,
2013-11-08 10:58:00,58.2,53.1,30.09,WNW,288,1.0,0.0,83,0.00,,,0.00,WeatherTracker,2013-11-08 18:58:00,
2013-11-08 11:04:00,59.0,54.2,30.09,WNW,288,1.0,0.0,84,0.00,,,0.00,WeatherTracker,2013-11-08 19:04:00,
2013-11-08 11:11:00,59.0,53.5,30.08,WSW,237,3.0,0.0,82,0.00,,,0.00,WeatherTracker,2013-11-08 19:11:00,
2013-11-08 11:19:00,59.0,53.5,30.08,WNW,286,3.0,0.0,82,0.00,,,0.00,WeatherTracker,2013-11-08 19:19:00,
2013-11-08 11:31:00,58.7,53.2,30.07,WSW,246,0.0,0.0,82,0.00,,,0.00,WeatherTracker,2013-11-08 19:31:00,
2013-11-08 11:38:00,59.6,54.1,30.07,WSW,247,0.0,0.0,82,0.00,,,0.00,WeatherTracker,2013-11-08 19:38:00,
2013-11-08 11:45:00,59.7,54.2,30.07,WNW,286,1.0,0.0,82,0.00,,,0.00,WeatherTracker,2013-11-08 19:45:00,
2013-11-08 11:53:00,60.0,54.5,30.06,WNW,284,2.0,0.0,82,0.00,,,0.00,WeatherTracker,2013-11-08 19:53:00,
2013-11-08 11:58:00,60.6,54.7,30.06,WNW,291,2.0,0.0,81,0.00,,,0.00,WeatherTracker,2013-11-08 19:58:00,
2013-11-08 12:09:00,60.3,54.1,30.05,WSW,253,4.0,0.0,80,0.00,,,0.00,WeatherTracker,2013-11-08 20:09:00,
2013-11-08 12:17:00,61.3,54.7,30.04,WNW,292,2.0,0.0,79,0.00,,,0.00,WeatherTracker,2013-11-08 20:17:00,
2013-11-08 12:32:00,62.0,54.3,30.04,SW,232,5.0,0.0,76,0.00,,,0.00,WeatherTracker,2013-11-08 20:32:00,
2013-11-08 12:56:00,62.3,53.9,30.03,SW,236,2.0,0.0,74,0.00,,,0.00,WeatherTracker,2013-11-08 20:56:00,
2013-11-08 13:03:00,63.4,55.7,30.02,SSW,213,1.0,0.0,76,0.00,,,0.00,WeatherTracker,2013-11-08 21:03:00,
2013-11-08 13:16:00,63.9,53.5,30.02,WSW,253,1.0,0.0,69,0.00,,,0.00,WeatherTracker,2013-11-08 21:16:00,
2013-11-08 13:22:00,64.1,53.7,30.02,WSW,253,0.0,0.0,69,0.00,,,0.00,WeatherTracker,2013-11-08 21:22:00,
2013-11-08 13:34:00,62.8,53.6,30.02,WNW,296,3.0,0.0,72,0.00,,,0.00,WeatherTracker,2013-11-08 21:34:00,
2013-11-08 14:07:00,61.9,53.1,30.01,SE,137,3.0,0.0,73,0.00,,,0.00,WeatherTracker,2013-11-08 22:07:00,
2013-11-08 14:15:00,63.0,53.8,30.00,West,263,0.0,0.0,72,0.00,,,0.00,WeatherTracker,2013-11-08 22:15:00,
2013-11-08 14:22:00,63.8,53.4,30.00,SW,227,2.0,0.0,69,0.00,,,0.00,WeatherTracker,2013-11-08 22:22:00,
2013-11-08 14:37:00,64.6,53.8,30.00,SW,234,1.0,0.0,68,0.00,,,0.00,WeatherTracker,2013-11-08 22:37:00,
2013-11-08 14:46:00,65.5,53.8,30.00,SW,235,2.0,0.0,66,0.00,,,0.00,WeatherTracker,2013-11-08 22:46:00,
2013-11-08 14:51:00,65.4,53.7,30.00,SW,235,2.0,0.0,66,0.00,,,0.00,WeatherTracker,2013-11-08 22:51:00,
2013-11-08 15:00:00,66.0,54.3,30.00,SW,236,1.0,0.0,66,0.00,,,0.00,WeatherTracker,2013-11-08 23:00:00,
2013-11-08 15:06:00,65.8,53.7,30.00,WSW,237,0.0,0.0,65,0.00,,,0.00,WeatherTracker,2013-11-08 23:06:00,
2013-11-08 15:14:00,66.0,53.9,29.99,WSW,237,1.0,0.0,65,0.00,,,0.00,WeatherTracker,2013-11-08 23:14:00,
2013-11-08 15:25:00,65.4,53.3,30.00,WSW,237,0.0,0.0,65,0.00,,,0.00,WeatherTracker,2013-11-08 23:25:00,
2013-11-08 15:36:00,65.6,53.5,29.99,WSW,237,2.0,0.0,65,0.00,,,0.00,WeatherTracker,2013-11-08 23:36:00,
2013-11-08 15:41:00,65.5,53.4,29.99,WSW,237,0.0,0.0,65,0.00,,,0.00,WeatherTracker,2013-11-08 23:41:00,
2013-11-08 15:48:00,65.5,53.8,29.99,WSW,237,0.0,0.0,66,0.00,,,0.00,WeatherTracker,2013-11-08 23:48:00,
2013-11-08 15:58:00,64.9,53.3,29.98,WSW,237,2.0,0.0,66,0.00,,,0.00,WeatherTracker,2013-11-08 23:58:00,
2013-11-08 16:04:00,64.4,53.2,29.98,WSW,237,3.0,0.0,67,0.00,,,0.00,WeatherTracker,2013-11-09 00:04:00,
2013-11-08 16:11:00,64.5,53.7,29.98,WSW,237,0.0,0.0,68,0.00,,,0.00,WeatherTracker,2013-11-09 00:11:00,
2013-11-08 16:19:00,64.5,53.3,29.98,WSW,237,1.0,0.0,67,0.00,,,0.00,WeatherTracker,2013-11-09 00:19:00,
2013-11-08 16:25:00,64.5,53.3,29.98,WSW,237,0.0,0.0,67,0.00,,,0.00,WeatherTracker,2013-11-09 00:25:00,
2013-11-08 16:31:00,64.3,53.1,29.98,WSW,237,0.0,0.0,67,0.00,,,0.00,WeatherTracker,2013-11-09 00:31:00,
2013-11-08 16:38:00,64.1,52.9,29.98,WSW,237,0.0,0.0,67,0.00,,,0.00,WeatherTracker,2013-11-09 00:38:00,
2013-11-08 16:44:00,63.9,52.7,29.98,WSW,237,0.0,0.0,67,0.00,,,0.00,WeatherTracker,2013-11-09 00:44:00,
2013-11-08 16:49:00,63.6,52.0,29.98,WSW,237,1.0,0.0,66,0.00,,,0.00,WeatherTracker,2013-11-09 00:49:00,
2013-11-08 16:57:00,63.2,51.6,29.98,WSW,237,0.0,0.0,66,0.00,,,0.00,WeatherTracker,2013-11-09 00:57:00,
2013-11-08 17:06:00,62.8,51.7,29.98,WSW,237,0.0,0.0,67,0.00,,,0.00,WeatherTracker,2013-11-09 01:06:00,
2013-11-08 17:12:00,62.3,50.8,29.98,WSW,237,0.0,0.0,66,0.00,,,0.00,WeatherTracker,2013-11-09 01:12:00,
2013-11-08 17:19:00,61.9,51.2,29.98,WSW,237,1.0,0.0,68,0.00,,,0.00,WeatherTracker,2013-11-09 01:19:00,
2013-11-08 17:27:00,61.5,51.2,29.98,WSW,237,0.0,0.0,69,0.00,,,0.00,WeatherTracker,2013-11-09 01:27:00,
2013-11-08 17:32:00,61.2,50.9,29.98,WSW,237,0.0,0.0,69,0.00,,,0.00,WeatherTracker,2013-11-09 01:32:00,
2013-11-08 17:38:00,60.9,51.0,29.98,WSW,237,0.0,0.0,70,0.00,,,0.00,WeatherTracker,2013-11-09 01:38:00,
2013-11-08 17:49:00,60.3,50.5,29.98,WSW,237,0.0,0.0,70,0.00,,,0.00,WeatherTracker,2013-11-09 01:49:00,
2013-11-08 17:55:00,60.0,50.6,29.98,WSW,237,0.0,0.0,71,0.00,,,0.00,WeatherTracker,2013-11-09 01:55:00,
2013-11-08 18:00:00,59.8,50.4,29.99,WSW,237,1.0,0.0,71,0.00,,,0.00,WeatherTracker,2013-11-09 02:00:00,
2013-11-08 18:05:00,59.4,49.6,29.99,WSW,237,1.0,0.0,70,0.00,,,0.00,WeatherTracker,2013-11-09 02:05:00,
2013-11-08 18:11:00,59.0,49.2,29.99,WSW,237,0.0,0.0,70,0.00,,,0.00,WeatherTracker,2013-11-09 02:11:00,
2013-11-08 18:20:00,59.0,49.2,29.99,WSW,237,0.0,0.0,70,0.00,,,0.00,WeatherTracker,2013-11-09 02:20:00,
2013-11-08 18:26:00,58.8,49.0,29.99,WSW,237,0.0,0.0,70,0.00,,,0.00,WeatherTracker,2013-11-09 02:26:00,
2013-11-08 18:32:00,58.6,48.8,29.99,WSW,237,0.0,0.0,70,0.00,,,0.00,WeatherTracker,2013-11-09 02:32:00,
2013-11-08 18:42:00,58.3,48.9,29.99,WSW,237,0.0,0.0,71,0.00,,,0.00,WeatherTracker,2013-11-09 02:42:00,
2013-11-08 18:48:00,58.1,48.7,29.99,WSW,237,0.0,0.0,71,0.00,,,0.00,WeatherTracker,2013-11-09 02:48:00,
2013-11-08 18:55:00,57.8,48.8,29.99,WSW,237,0.0,0.0,72,0.00,,,0.00,WeatherTracker,2013-11-09 02:55:00,
2013-11-08 19:14:00,57.2,49.0,29.99,WSW,237,0.0,0.0,74,0.00,,,0.00,WeatherTracker,2013-11-09 03:14:00,
2013-11-08 19:19:00,56.9,49.1,29.99,SW,236,1.0,0.0,75,0.00,,,0.00,WeatherTracker,2013-11-09 03:19:00,
2013-11-08 19:28:00,56.7,49.2,29.99,WSW,237,1.0,0.0,76,0.00,,,0.00,WeatherTracker,2013-11-09 03:28:00,
2013-11-08 19:33:00,56.6,49.5,29.99,SW,236,0.0,0.0,77,0.00,,,0.00,WeatherTracker,2013-11-09 03:33:00,
2013-11-08 19:45:00,56.2,49.1,29.99,SW,220,0.0,0.0,77,0.00,,,0.00,WeatherTracker,2013-11-09 03:45:00,
2013-11-08 19:52:00,56.0,49.2,29.99,SW,220,0.0,0.0,78,0.00,,,0.00,WeatherTracker,2013-11-09 03:52:00,
2013-11-08 19:57:00,56.0,49.6,29.99,SSW,198,0.0,0.0,79,0.00,,,0.00,WeatherTracker,2013-11-09 03:57:00,
2013-11-08 20:03:00,55.9,49.8,29.99,SSW,198,0.0,0.0,80,0.00,,,0.00,WeatherTracker,2013-11-09 04:03:00,
2013-11-08 20:09:00,55.7,49.6,29.99,SSW,196,0.0,0.0,80,0.00,,,0.00,WeatherTracker,2013-11-09 04:09:00,
2013-11-08 20:15:00,55.6,49.5,29.99,SSW,196,0.0,0.0,80,0.00,,,0.00,WeatherTracker,2013-11-09 04:15:00,
2013-11-08 20:22:00,55.4,49.3,29.99,SSW,196,0.0,0.0,80,0.00,,,0.00,WeatherTracker,2013-11-09 04:22:00,
2013-11-08 20:31:00,55.1,48.7,29.99,SSW,196,0.0,0.0,79,0.00,,,0.00,WeatherTracker,2013-11-09 04:31:00,
2013-11-08 20:45:00,54.7,48.3,30.00,SSW,196,0.0,0.0,79,0.00,,,0.00,WeatherTracker,2013-11-09 04:45:00,
2013-11-08 21:03:00,54.4,48.0,30.01,SSW,196,0.0,0.0,79,0.00,,,0.00,WeatherTracker,2013-11-09 05:03:00,
2013-11-08 21:19:00,54.2,48.2,30.01,SSW,196,0.0,0.0,80,0.00,,,0.00,WeatherTracker,2013-11-09 05:19:00,
2013-11-08 21:28:00,54.0,48.0,30.02,SSW,196,0.0,0.0,80,0.00,,,0.00,WeatherTracker,2013-11-09 05:28:00,
2013-11-08 21:32:00,54.0,48.0,30.02,SSW,196,0.0,0.0,80,0.00,,,0.00,WeatherTracker,2013-11-09 05:32:00,
2013-11-08 21:42:00,53.9,48.2,30.02,SSW,196,0.0,0.0,81,0.00,,,0.00,WeatherTracker,2013-11-09 05:42:00,
2013-11-08 21:49:00,53.8,48.1,30.02,SSW,196,0.0,0.0,81,0.00,,,0.00,WeatherTracker,2013-11-09 05:49:00,
2013-11-08 21:56:00,53.7,48.0,30.02,SSW,196,0.0,0.0,81,0.00,,,0.00,WeatherTracker,2013-11-09 05:56:00,
2013-11-08 22:01:00,53.5,47.8,30.02,SSW,196,0.0,0.0,81,0.00,,,0.00,WeatherTracker,2013-11-09 06:01:00,
2013-11-08 22:11:00,53.2,47.8,30.02,SSW,196,0.0,0.0,82,0.00,,,0.00,WeatherTracker,2013-11-09 06:11:00,
2013-11-08 22:17:00,53.1,47.8,30.02,SSW,193,0.0,0.0,82,0.00,,,0.00,WeatherTracker,2013-11-09 06:17:00,
2013-11-08 22:23:00,53.2,48.2,30.02,South,184,0.0,0.0,83,0.00,,,0.00,WeatherTracker,2013-11-09 06:23:00,
2013-11-08 22:28:00,53.3,48.3,30.01,South,184,0.0,0.0,83,0.00,,,0.00,WeatherTracker,2013-11-09 06:28:00,
2013-11-08 22:36:00,53.3,48.3,30.02,South,184,0.0,0.0,83,0.00,,,0.00,WeatherTracker,2013-11-09 06:36:00,
2013-11-08 22:42:00,53.2,48.5,30.02,South,184,0.0,0.0,84,0.00,,,0.00,WeatherTracker,2013-11-09 06:42:00,
2013-11-08 22:54:00,53.0,48.3,30.01,South,183,0.0,0.0,84,0.00,,,0.00,WeatherTracker,2013-11-09 06:54:00,
2013-11-08 23:08:00,52.6,47.9,30.01,South,183,0.0,0.0,84,0.00,,,0.00,WeatherTracker,2013-11-09 07:08:00,
2013-11-08 23:14:00,52.3,47.6,30.01,South,183,0.0,0.0,84,0.00,,,0.00,WeatherTracker,2013-11-09 07:14:00,
2013-11-08 23:22:00,53.2,49.1,30.01,South,184,0.0,0.0,86,0.00,,,0.00,WeatherTracker,2013-11-09 07:22:00,
2013-11-08 23:45:00,51.7,47.0,30.01,South,184,0.0,0.0,84,0.00,,,0.00,WeatherTracker,2013-11-09 07:45:00,